date,time,SUV Intensity [MED/Hr],UV Index,Daily total [MED],Since Last [MED]
10/04/2022,00:06:44,0.001,0.0,0.0,0.0
10/04/2022,00:07:44,-0.000,0.0,0.0,0.0
10/04/2022,00:09:45,-0.001,0.0,0.0,0.0
10/04/2022,00:10:45,0.000,0.0,0.0,0.0
10/04/2022,00:11:44,0.001,0.0,0.0,0.0
10/04/2022,00:12:45,0.000,0.0,0.0,0.0
10/04/2022,00:13:52,0.000,0.0,0.0,0.0
10/04/2022,00:14:44,0.000,0.0,0.0,0.0
10/04/2022,00:15:44,-0.001,0.0,0.0,0.0
10/04/2022,00:16:53,0.000,0.0,0.0,0.0
10/04/2022,00:17:44,0.000,0.0,0.0,0.0
10/04/2022,00:18:52,0.001,0.0,0.0,0.0
10/04/2022,00:19:52,-0.001,0.0,0.0,0.0
10/04/2022,00:21:45,-0.001,0.0,0.0,0.0
10/04/2022,00:22:44,0.000,0.0,0.0,0.0
10/04/2022,00:23:53,-0.001,0.0,0.0,0.0
10/04/2022,00:25:45,0.001,0.0,0.0,0.0
10/04/2022,00:26:53,0.001,0.0,0.0,0.0
10/04/2022,00:27:44,0.001,0.0,0.0,0.0
10/04/2022,00:28:44,0.001,0.0,0.0,0.0
10/04/2022,00:29:44,0.000,0.0,0.0,0.0
10/04/2022,00:30:45,-0.001,0.0,0.0,0.0
10/04/2022,00:31:44,0.001,0.0,0.0,0.0
10/04/2022,00:32:44,0.000,0.0,0.0,0.0
10/04/2022,00:33:44,-0.001,0.0,0.0,0.0
10/04/2022,00:34:44,0.000,0.0,0.0,0.0
10/04/2022,00:35:44,-0.000,0.0,0.0,0.0
10/04/2022,00:36:52,0.000,0.0,0.0,0.0
10/04/2022,00:37:44,0.000,0.0,0.0,0.0
10/04/2022,00:38:44,-0.001,0.0,0.0,0.0
10/04/2022,00:39:44,0.001,0.0,0.0,0.0
10/04/2022,00:40:44,0.000,0.0,0.0,0.0
10/04/2022,00:41:44,0.000,0.0,0.0,0.0
10/04/2022,00:42:45,0.001,0.0,0.0,0.0
10/04/2022,00:43:44,0.000,0.0,0.0,0.0
10/04/2022,00:44:52,0.000,0.0,0.0,0.0
10/04/2022,00:45:44,0.000,0.0,0.0,0.0
10/04/2022,00:46:44,0.000,0.0,0.0,0.0
10/04/2022,00:47:56,0.000,0.0,0.0,0.0
10/04/2022,00:49:45,0.000,0.0,0.0,0.0
10/04/2022,00:50:44,0.001,0.0,0.0,0.0
10/04/2022,00:51:44,0.000,0.0,0.0,0.0
10/04/2022,00:52:44,0.000,0.0,0.0,0.0
10/04/2022,00:53:45,0.000,0.0,0.0,0.0
10/04/2022,00:54:53,0.000,0.0,0.0,0.0
10/04/2022,00:56:45,0.001,0.0,0.0,0.0
10/04/2022,00:57:44,0.000,0.0,0.0,0.0
10/04/2022,00:58:45,-0.000,0.0,0.0,0.0
10/04/2022,00:59:44,-0.001,0.0,0.0,0.0
10/04/2022,01:00:44,0.000,0.0,0.0,0.0
10/04/2022,01:01:52,0.001,0.0,0.0,0.0
10/04/2022,01:02:44,0.000,0.0,0.0,0.0
10/04/2022,01:03:44,0.001,0.0,0.0,0.0
10/04/2022,01:04:45,0.000,0.0,0.0,0.0
10/04/2022,01:05:44,0.001,0.0,0.0,0.0
10/04/2022,01:06:44,-0.001,0.0,0.0,0.0
10/04/2022,01:07:44,0.001,0.0,0.0,0.0
10/04/2022,01:08:44,-0.001,0.0,0.0,0.0
10/04/2022,01:09:44,0.000,0.0,0.0,0.0
10/04/2022,01:10:45,-0.000,0.0,0.0,0.0
10/04/2022,01:11:45,0.000,0.0,0.0,0.0
10/04/2022,01:12:44,0.000,0.0,0.0,0.0
10/04/2022,01:13:44,0.001,0.0,0.0,0.0
10/04/2022,01:14:45,0.000,0.0,0.0,0.0
10/04/2022,01:15:44,0.001,0.0,0.0,0.0
10/04/2022,01:16:44,0.000,0.0,0.0,0.0
10/04/2022,01:17:44,0.001,0.0,0.0,0.0
10/04/2022,01:18:45,0.000,0.0,0.0,0.0
10/04/2022,01:19:44,0.002,0.0,0.0,0.0
10/04/2022,01:20:58,0.001,0.0,0.0,0.0
10/04/2022,01:22:45,0.001,0.0,0.0,0.0
10/04/2022,01:23:44,-0.000,0.0,0.0,0.0
10/04/2022,01:24:44,0.001,0.0,0.0,0.0
10/04/2022,01:25:59,-0.000,0.0,0.0,0.0
10/04/2022,01:27:45,0.000,0.0,0.0,0.0
10/04/2022,01:28:44,0.001,0.0,0.0,0.0
10/04/2022,01:29:45,0.001,0.0,0.0,0.0
10/04/2022,01:30:44,0.000,0.0,0.0,0.0
10/04/2022,01:31:45,0.001,0.0,0.0,0.0
10/04/2022,01:32:53,0.001,0.0,0.0,0.0
10/04/2022,01:33:44,0.001,0.0,0.0,0.0
10/04/2022,01:34:45,0.001,0.0,0.0,0.0
10/04/2022,01:35:44,0.002,0.0,0.0,0.0
10/04/2022,01:36:44,0.001,0.0,0.0,0.0
10/04/2022,01:37:46,0.000,0.0,0.0,0.0
10/04/2022,01:38:44,0.001,0.0,0.0,0.0
10/04/2022,01:39:45,-0.001,0.0,0.0,0.0
10/04/2022,01:40:45,0.001,0.0,0.0,0.0
10/04/2022,01:41:45,0.001,0.0,0.0,0.0
10/04/2022,01:43:45,0.001,0.0,0.0,0.0
10/04/2022,01:44:44,0.000,0.0,0.0,0.0
10/04/2022,01:45:44,0.001,0.0,0.0,0.0
10/04/2022,01:46:44,0.001,0.0,0.0,0.0
10/04/2022,01:47:44,0.001,0.0,0.0,0.0
10/04/2022,01:48:45,0.001,0.0,0.0,0.0
10/04/2022,01:49:44,0.000,0.0,0.0,0.0
10/04/2022,01:50:45,-0.000,0.0,0.0,0.0
10/04/2022,01:51:46,0.001,0.0,0.0,0.0
10/04/2022,01:52:45,0.001,0.0,0.0,0.0
10/04/2022,01:53:44,0.002,0.0,0.0,0.0
10/04/2022,01:54:45,0.001,0.0,0.0,0.0
10/04/2022,01:55:45,0.001,0.0,0.0,0.0
10/04/2022,01:56:45,0.001,0.0,0.0,0.0
10/04/2022,01:57:44,0.001,0.0,0.0,0.0
10/04/2022,01:58:44,0.002,0.0,0.0,0.0
10/04/2022,01:59:45,0.001,0.0,0.0,0.0
10/04/2022,02:00:44,0.001,0.0,0.0,0.0
10/04/2022,02:01:53,0.001,0.0,0.0,0.0
10/04/2022,02:02:44,0.001,0.0,0.0,0.0
10/04/2022,02:03:44,0.000,0.0,0.0,0.0
10/04/2022,02:04:45,-0.000,0.0,0.0,0.0
10/04/2022,02:05:44,0.002,0.0,0.0,0.0
10/04/2022,02:06:45,0.001,0.0,0.0,0.0
10/04/2022,02:07:53,0.001,0.0,0.0,0.0
10/04/2022,02:09:45,0.001,0.0,0.0,0.0
10/04/2022,02:10:44,-0.000,0.0,0.0,0.0
10/04/2022,02:11:45,0.001,0.0,0.0,0.0
10/04/2022,02:12:45,0.001,0.0,0.0,0.0
10/04/2022,02:13:45,0.001,0.0,0.0,0.0
10/04/2022,02:14:44,0.001,0.0,0.0,0.0
10/04/2022,02:15:45,0.001,0.0,0.0,0.0
10/04/2022,02:16:44,0.001,0.0,0.0,0.0
10/04/2022,02:17:44,0.000,0.0,0.0,0.0
10/04/2022,02:18:53,0.001,0.0,0.0,0.0
10/04/2022,02:19:44,0.001,0.0,0.0,0.0
10/04/2022,02:20:44,0.001,0.0,0.0,0.0
10/04/2022,02:21:45,0.002,0.0,0.0,0.0
10/04/2022,02:22:44,0.001,0.0,0.0,0.0
10/04/2022,02:23:44,0.001,0.0,0.0,0.0
10/04/2022,02:24:45,0.001,0.0,0.0,0.0
10/04/2022,02:25:45,0.001,0.0,0.0,0.0
10/04/2022,02:26:44,0.001,0.0,0.0,0.0
10/04/2022,02:27:44,0.002,0.0,0.0,0.0
10/04/2022,02:28:53,0.003,0.0,0.0,0.0
10/04/2022,02:30:45,0.002,0.0,0.0,0.0
10/04/2022,02:31:44,0.002,0.0,0.0,0.0
10/04/2022,02:32:45,0.001,0.0,0.0,0.0
10/04/2022,02:33:44,0.000,0.0,0.0,0.0
10/04/2022,02:34:44,0.002,0.0,0.0,0.0
10/04/2022,02:35:45,0.001,0.0,0.0,0.0
10/04/2022,02:36:44,0.001,0.0,0.0,0.0
10/04/2022,02:37:45,0.001,0.0,0.0,0.0
10/04/2022,02:38:45,0.001,0.0,0.0,0.0
10/04/2022,02:39:44,0.001,0.0,0.0,0.0
10/04/2022,02:40:45,0.000,0.0,0.0,0.0
10/04/2022,02:41:44,0.001,0.0,0.0,0.0
10/04/2022,02:42:44,0.000,0.0,0.0,0.0
10/04/2022,02:43:36,0.001,0.0,0.0,0.0
10/04/2022,02:44:45,0.001,0.0,0.0,0.0
10/04/2022,02:46:46,0.001,0.0,0.0,0.0
10/04/2022,02:47:44,0.001,0.0,0.0,0.0
10/04/2022,02:48:44,0.000,0.0,0.0,0.0
10/04/2022,02:49:53,0.001,0.0,0.0,0.0
10/04/2022,02:50:44,0.001,0.0,0.0,0.0
10/04/2022,02:51:45,0.002,0.0,0.0,0.0
10/04/2022,02:52:45,0.002,0.0,0.0,0.0
10/04/2022,02:53:45,0.002,0.0,0.0,0.0
10/04/2022,02:54:44,0.002,0.0,0.0,0.0
10/04/2022,02:55:53,0.001,0.0,0.0,0.0
10/04/2022,02:56:45,0.001,0.0,0.0,0.0
10/04/2022,02:57:45,0.000,0.0,0.0,0.0
10/04/2022,02:58:44,0.001,0.0,0.0,0.0
10/04/2022,02:59:52,0.000,0.0,0.0,0.0
10/04/2022,03:01:54,0.001,0.0,0.0,0.0
10/04/2022,03:02:44,0.001,0.0,0.0,0.0
10/04/2022,03:03:44,0.001,0.0,0.0,0.0
10/04/2022,03:04:44,0.000,0.0,0.0,0.0
10/04/2022,03:05:45,0.001,0.0,0.0,0.0
10/04/2022,03:06:45,0.000,0.0,0.0,0.0
10/04/2022,03:07:53,0.002,0.0,0.0,0.0
10/04/2022,03:08:44,0.002,0.0,0.0,0.0
10/04/2022,03:09:45,0.000,0.0,0.0,0.0
10/04/2022,03:10:53,0.000,0.0,0.0,0.0
10/04/2022,03:11:45,0.002,0.0,0.0,0.0
10/04/2022,03:12:44,0.002,0.0,0.0,0.0
10/04/2022,03:13:45,0.001,0.0,0.0,0.0
10/04/2022,03:14:44,0.002,0.0,0.0,0.0
10/04/2022,03:15:44,0.001,0.0,0.0,0.0
10/04/2022,03:16:45,0.001,0.0,0.0,0.0
10/04/2022,03:17:53,0.001,0.0,0.0,0.0
10/04/2022,03:18:44,0.001,0.0,0.0,0.0
10/04/2022,03:19:44,0.002,0.0,0.0,0.0
10/04/2022,03:20:45,0.001,0.0,0.0,0.0
10/04/2022,03:21:44,0.000,0.0,0.0,0.0
10/04/2022,03:22:45,0.001,0.0,0.0,0.0
10/04/2022,03:23:45,0.001,0.0,0.0,0.0
10/04/2022,03:24:44,0.000,0.0,0.0,0.0
10/04/2022,03:25:45,0.002,0.0,0.0,0.0
10/04/2022,03:26:44,0.001,0.0,0.0,0.0
10/04/2022,03:27:44,0.002,0.0,0.0,0.0
10/04/2022,03:28:53,0.001,0.0,0.0,0.0
10/04/2022,03:29:44,0.001,0.0,0.0,0.0
10/04/2022,03:30:45,0.001,0.0,0.0,0.0
10/04/2022,03:31:54,0.001,0.0,0.0,0.0
10/04/2022,03:33:46,0.001,0.0,0.0,0.0
10/04/2022,03:34:45,0.001,0.0,0.0,0.0
10/04/2022,03:35:45,0.002,0.0,0.0,0.0
10/04/2022,03:36:45,0.001,0.0,0.0,0.0
10/04/2022,03:37:44,0.003,0.0,0.0,0.0
10/04/2022,03:38:45,0.001,0.0,0.0,0.0
10/04/2022,03:39:44,0.001,0.0,0.0,0.0
10/04/2022,03:40:45,0.000,0.0,0.0,0.0
10/04/2022,03:41:44,0.002,0.0,0.0,0.0
10/04/2022,03:42:45,0.002,0.0,0.0,0.0
10/04/2022,03:43:44,0.002,0.0,0.0,0.0
10/04/2022,03:44:44,0.001,0.0,0.0,0.0
10/04/2022,03:45:45,0.001,0.0,0.0,0.0
10/04/2022,03:46:53,0.002,0.0,0.0,0.0
10/04/2022,03:47:45,0.001,0.0,0.0,0.0
10/04/2022,03:48:44,0.001,0.0,0.0,0.0
10/04/2022,03:49:45,0.001,0.0,0.0,0.0
10/04/2022,03:50:44,0.001,0.0,0.0,0.0
10/04/2022,03:51:45,0.002,0.0,0.0,0.0
10/04/2022,03:52:44,0.000,0.0,0.0,0.0
10/04/2022,03:53:44,0.002,0.0,0.0,0.0
10/04/2022,03:54:45,0.001,0.0,0.0,0.0
10/04/2022,03:55:44,0.001,0.0,0.0,0.0
10/04/2022,03:56:52,0.001,0.0,0.0,0.0
10/04/2022,03:57:44,0.001,0.0,0.0,0.0
10/04/2022,03:58:44,0.001,0.0,0.0,0.0
10/04/2022,03:59:53,0.001,0.0,0.0,0.0
10/04/2022,04:01:45,0.001,0.0,0.0,0.0
10/04/2022,04:02:45,0.000,0.0,0.0,0.0
10/04/2022,04:03:44,0.002,0.0,0.0,0.0
10/04/2022,04:04:45,0.001,0.0,0.0,0.0
10/04/2022,04:05:45,0.002,0.0,0.0,0.0
10/04/2022,04:06:44,0.001,0.0,0.0,0.0
10/04/2022,04:07:53,0.001,0.0,0.0,0.0
10/04/2022,04:09:45,0.002,0.0,0.0,0.0
10/04/2022,04:10:48,0.003,0.0,0.0,0.0
10/04/2022,04:11:45,0.000,0.0,0.0,0.0
10/04/2022,04:12:46,0.001,0.0,0.0,0.0
10/04/2022,04:13:45,0.001,0.0,0.0,0.0
10/04/2022,04:14:45,0.001,0.0,0.0,0.0
10/04/2022,04:15:44,0.001,0.0,0.0,0.0
10/04/2022,04:16:45,0.002,0.0,0.0,0.0
10/04/2022,04:17:53,0.001,0.0,0.0,0.0
10/04/2022,04:19:45,0.002,0.0,0.0,0.0
10/04/2022,04:20:45,0.001,0.0,0.0,0.0
10/04/2022,04:21:45,0.001,0.0,0.0,0.0
10/04/2022,04:22:44,0.000,0.0,0.0,0.0
10/04/2022,04:23:45,0.001,0.0,0.0,0.0
10/04/2022,04:24:44,0.002,0.0,0.0,0.0
10/04/2022,04:25:45,0.002,0.0,0.0,0.0
10/04/2022,04:26:45,0.001,0.0,0.0,0.0
10/04/2022,04:27:44,0.001,0.0,0.0,0.0
10/04/2022,04:28:45,0.000,0.0,0.0,0.0
10/04/2022,04:29:44,0.002,0.0,0.0,0.0
10/04/2022,04:30:45,0.002,0.0,0.0,0.0
10/04/2022,04:31:45,0.002,0.0,0.0,0.0
10/04/2022,04:32:53,0.000,0.0,0.0,0.0
10/04/2022,04:34:45,0.002,0.0,0.0,0.0
10/04/2022,04:35:53,0.001,0.0,0.0,0.0
10/04/2022,04:36:44,0.002,0.0,0.0,0.0
10/04/2022,04:37:45,0.002,0.0,0.0,0.0
10/04/2022,04:38:44,0.002,0.0,0.0,0.0
10/04/2022,04:39:45,0.001,0.0,0.0,0.0
10/04/2022,04:40:44,0.002,0.0,0.0,0.0
10/04/2022,04:41:45,0.001,0.0,0.0,0.0
10/04/2022,04:42:45,0.002,0.0,0.0,0.0
10/04/2022,04:43:45,0.001,0.0,0.0,0.0
10/04/2022,04:44:44,0.001,0.0,0.0,0.0
10/04/2022,04:45:44,0.002,0.0,0.0,0.0
10/04/2022,04:46:45,0.002,0.0,0.0,0.0
10/04/2022,04:47:44,0.002,0.0,0.0,0.0
10/04/2022,04:48:45,0.002,0.0,0.0,0.0
10/04/2022,04:49:44,0.001,0.0,0.0,0.0
10/04/2022,04:50:45,0.001,0.0,0.0,0.0
10/04/2022,04:51:59,0.002,0.0,0.0,0.0
10/04/2022,04:53:45,0.002,0.0,0.0,0.0
10/04/2022,04:54:44,0.002,0.0,0.0,0.0
10/04/2022,04:55:45,0.001,0.0,0.0,0.0
10/04/2022,04:56:44,0.001,0.0,0.0,0.0
10/04/2022,04:57:44,0.001,0.0,0.0,0.0
10/04/2022,04:58:53,0.002,0.0,0.0,0.0
10/04/2022,04:59:44,0.002,0.0,0.0,0.0
10/04/2022,05:00:45,0.002,0.0,0.0,0.0
10/04/2022,05:01:45,0.002,0.0,0.0,0.0
10/04/2022,05:02:44,0.002,0.0,0.0,0.0
10/04/2022,05:03:44,0.002,0.0,0.0,0.0
10/04/2022,05:04:46,0.002,0.0,0.0,0.0
10/04/2022,05:05:43,0.001,0.0,0.0,0.0
10/04/2022,05:06:44,0.002,0.0,0.0,0.0
10/04/2022,05:07:47,0.001,0.0,0.0,0.0
10/04/2022,05:08:53,0.003,0.0,0.0,0.0
10/04/2022,05:09:43,0.002,0.0,0.0,0.0
10/04/2022,05:10:45,0.002,0.0,0.0,0.0
10/04/2022,05:11:44,0.001,0.0,0.0,0.0
10/04/2022,05:12:45,0.001,0.0,0.0,0.0
10/04/2022,05:13:45,0.001,0.0,0.0,0.0
10/04/2022,05:14:53,0.003,0.0,0.0,0.0
10/04/2022,05:15:44,0.002,0.0,0.0,0.0
10/04/2022,05:16:45,0.003,0.0,0.0,0.0
10/04/2022,05:17:45,0.002,0.0,0.0,0.0
10/04/2022,05:18:45,0.003,0.0,0.0,0.0
10/04/2022,05:19:45,0.003,0.0,0.0,0.0
10/04/2022,05:20:45,0.003,0.0,0.0,0.0
10/04/2022,05:21:44,0.003,0.0,0.0,0.0
10/04/2022,05:22:54,0.003,0.0,0.0,0.0
10/04/2022,05:23:45,0.003,0.0,0.0,0.0
10/04/2022,05:24:45,0.004,0.0,0.0,0.0
10/04/2022,05:25:45,0.004,0.0,0.0,0.0
10/04/2022,05:26:45,0.004,0.0,0.0,0.0
10/04/2022,05:27:45,0.004,0.0,0.0,0.0
10/04/2022,05:28:45,0.004,0.0,0.0,0.0
10/04/2022,05:29:53,0.005,0.0,0.0,0.0
10/04/2022,05:31:45,0.005,0.0,0.0,0.0
10/04/2022,05:32:45,0.005,0.0,0.0,0.0
10/04/2022,05:33:46,0.005,0.0,0.0,0.0
10/04/2022,05:34:45,0.007,0.0,0.0,0.0
10/04/2022,05:35:45,0.006,0.0,0.0,0.0
10/04/2022,05:36:44,0.006,0.0,0.0,0.0
10/04/2022,05:37:45,0.006,0.0,0.0,0.0
10/04/2022,05:38:44,0.007,0.0,0.0,0.0
10/04/2022,05:39:45,0.007,0.0,0.0,0.0
10/04/2022,05:40:45,0.008,0.0,0.001,0.001
10/04/2022,05:41:44,0.008,0.0,0.001,0.0
10/04/2022,05:42:45,0.008,0.0,0.001,0.0
10/04/2022,05:43:45,0.009,0.0,0.001,0.0
10/04/2022,05:44:45,0.010,0.0,0.001,0.0
10/04/2022,05:45:44,0.010,0.0,0.001,0.0
10/04/2022,05:46:45,0.010,0.0,0.001,0.0
10/04/2022,05:47:45,0.011,0.0,0.002,0.001
10/04/2022,05:48:45,0.010,0.0,0.002,0.0
10/04/2022,05:49:44,0.011,0.0,0.002,0.0
10/04/2022,05:50:53,0.011,0.0,0.002,0.0
10/04/2022,05:51:44,0.012,0.0,0.002,0.0
10/04/2022,05:52:45,0.012,0.0,0.003,0.001
10/04/2022,05:53:45,0.013,0.0,0.003,0.0
10/04/2022,05:54:45,0.013,0.0,0.003,0.0
10/04/2022,05:55:45,0.014,0.0,0.003,0.0
10/04/2022,05:56:44,0.014,0.0,0.003,0.0
10/04/2022,05:57:45,0.015,0.0,0.004,0.001
10/04/2022,05:58:53,0.016,0.0,0.004,0.0
10/04/2022,05:59:44,0.016,0.0,0.004,0.0
10/04/2022,06:00:46,0.016,0.0,0.005,0.001
10/04/2022,06:01:45,0.017,0.0,0.005,0.0
10/04/2022,06:02:45,0.018,0.0,0.005,0.0
10/04/2022,06:03:53,0.020,0.0,0.005,0.0
10/04/2022,06:04:45,0.019,0.0,0.006,0.001
10/04/2022,06:05:45,0.020,0.0,0.006,0.0
10/04/2022,06:06:45,0.020,0.0,0.006,0.0
10/04/2022,06:07:45,0.022,0.0,0.007,0.001
10/04/2022,06:08:53,0.021,0.0,0.007,0.0
10/04/2022,06:10:45,0.024,0.0,0.008,0.001
10/04/2022,06:11:45,0.024,0.0,0.008,0.0
10/04/2022,06:12:45,0.024,0.0,0.009,0.001
10/04/2022,06:13:45,0.026,0.0,0.009,0.0
10/04/2022,06:14:45,0.026,0.0,0.009,0.0
10/04/2022,06:15:54,0.028,0.0,0.01,0.001
10/04/2022,06:16:53,0.028,0.0,0.01,0.0
10/04/2022,06:17:44,0.029,0.0,0.011,0.001
10/04/2022,06:18:45,0.030,0.0,0.011,0.0
10/04/2022,06:19:45,0.031,0.0,0.012,0.001
10/04/2022,06:20:45,0.032,0.0,0.012,0.0
10/04/2022,06:21:45,0.033,0.0,0.013,0.001
10/04/2022,06:22:53,0.035,0.0,0.014,0.001
10/04/2022,06:23:43,0.035,0.0,0.014,0.0
10/04/2022,06:24:45,0.036,0.0,0.015,0.001
10/04/2022,06:25:45,0.037,0.0,0.015,0.0
10/04/2022,06:26:44,0.037,0.0,0.016,0.001
10/04/2022,06:27:45,0.038,0.0,0.017,0.001
10/04/2022,06:28:45,0.040,0.0,0.017,0.0
10/04/2022,06:29:46,0.041,0.0,0.018,0.001
10/04/2022,06:30:45,0.042,0.0,0.019,0.001
10/04/2022,06:31:46,0.044,0.0,0.019,0.0
10/04/2022,06:32:45,0.045,0.0,0.02,0.001
10/04/2022,06:33:45,0.046,0.0,0.021,0.001
10/04/2022,06:34:45,0.048,0.0,0.022,0.001
10/04/2022,06:35:45,0.049,0.0,0.022,0.0
10/04/2022,06:36:45,0.051,0.0,0.023,0.001
10/04/2022,06:37:53,0.052,0.0,0.024,0.001
10/04/2022,06:39:46,0.055,0.0,0.026,0.002
10/04/2022,06:40:44,0.057,0.0,0.027,0.001
10/04/2022,06:41:45,0.058,0.0,0.028,0.001
10/04/2022,06:42:45,0.060,0.0,0.029,0.001
10/04/2022,06:43:45,0.062,0.0,0.03,0.001
10/04/2022,06:44:45,0.063,0.0,0.031,0.001
10/04/2022,06:45:45,0.065,0.0,0.032,0.001
10/04/2022,06:46:45,0.066,0.0,0.033,0.001
10/04/2022,06:47:45,0.068,0.0,0.034,0.001
10/04/2022,06:48:45,0.071,0.0,0.035,0.001
10/04/2022,06:49:45,0.070,0.0,0.036,0.001
10/04/2022,06:50:45,0.072,0.0,0.038,0.002
10/04/2022,06:51:45,0.075,0.0,0.039,0.001
10/04/2022,06:52:53,0.077,0.0,0.04,0.001
10/04/2022,06:54:46,0.079,0.0,0.043,0.003
10/04/2022,06:55:53,0.082,0.0,0.044,0.001
10/04/2022,06:57:45,0.087,0.0,0.047,0.003
10/04/2022,06:58:45,0.088,0.0,0.048,0.001
10/04/2022,06:59:45,0.090,0.0,0.05,0.002
10/04/2022,07:00:45,0.092,0.0,0.051,0.001
10/04/2022,07:01:45,0.093,0.0,0.053,0.002
10/04/2022,07:02:45,0.095,0.0,0.054,0.001
10/04/2022,07:03:45,0.098,0.0,0.056,0.002
10/04/2022,07:04:45,0.101,0.0,0.058,0.002
10/04/2022,07:05:45,0.103,0.0,0.059,0.001
10/04/2022,07:06:45,0.107,0.0,0.061,0.002
10/04/2022,07:07:45,0.109,0.0,0.063,0.002
10/04/2022,07:08:45,0.113,0.0,0.065,0.002
10/04/2022,07:09:45,0.117,0.0,0.067,0.002
10/04/2022,07:10:53,0.119,0.0,0.069,0.002
10/04/2022,07:12:45,0.125,0.0,0.073,0.004
10/04/2022,07:13:53,0.129,0.0,0.075,0.002
10/04/2022,07:15:46,0.134,0.0,0.079,0.004
10/04/2022,07:16:45,0.136,0.0,0.081,0.002
10/04/2022,07:17:45,0.140,0.0,0.084,0.003
10/04/2022,07:18:45,0.143,0.0,0.086,0.002
10/04/2022,07:19:45,0.145,0.0,0.089,0.003
10/04/2022,07:20:53,0.149,0.0,0.091,0.002
10/04/2022,07:21:45,0.151,0.0,0.093,0.002
10/04/2022,07:22:46,0.153,0.0,0.096,0.003
10/04/2022,07:23:45,0.158,0.0,0.099,0.003
10/04/2022,07:24:45,0.160,0.0,0.101,0.002
10/04/2022,07:25:44,0.163,0.0,0.104,0.003
10/04/2022,07:26:44,0.167,0.0,0.107,0.003
10/04/2022,07:27:45,0.171,0.0,0.11,0.003
10/04/2022,07:28:53,0.174,0.0,0.113,0.003
10/04/2022,07:30:46,0.180,0.0,0.118,0.005
10/04/2022,07:31:53,0.182,0.0,0.122,0.004
10/04/2022,07:32:45,0.186,0.0,0.124,0.002
10/04/2022,07:33:45,0.192,0.0,0.128,0.004
10/04/2022,07:34:45,0.195,0.0,0.131,0.003
10/04/2022,07:35:45,0.200,0.0,0.134,0.003
10/04/2022,07:36:45,0.203,0.0,0.137,0.003
10/04/2022,07:37:45,0.208,0.0,0.141,0.004
10/04/2022,07:38:53,0.213,0.0,0.145,0.004
10/04/2022,07:39:44,0.216,0.0,0.148,0.003
10/04/2022,07:40:45,0.221,1.0,0.152,0.004
10/04/2022,07:41:45,0.226,1.0,0.155,0.003
10/04/2022,07:42:45,0.230,1.0,0.159,0.004
10/04/2022,07:43:45,0.235,1.0,0.163,0.004
10/04/2022,07:44:45,0.238,1.0,0.167,0.004
10/04/2022,07:45:45,0.243,1.0,0.171,0.004
10/04/2022,07:46:45,0.247,1.0,0.175,0.004
10/04/2022,07:47:45,0.249,1.0,0.179,0.004
10/04/2022,07:48:45,0.256,1.0,0.183,0.004
10/04/2022,07:49:45,0.260,1.0,0.188,0.005
10/04/2022,07:50:45,0.264,1.0,0.192,0.004
10/04/2022,07:51:45,0.267,1.0,0.196,0.004
10/04/2022,07:52:45,0.272,1.0,0.201,0.005
10/04/2022,07:53:53,0.273,1.0,0.206,0.005
10/04/2022,07:54:44,0.280,1.0,0.21,0.004
10/04/2022,07:55:45,0.284,1.0,0.215,0.005
10/04/2022,07:56:45,0.287,1.0,0.219,0.004
10/04/2022,07:57:45,0.291,1.0,0.224,0.005
10/04/2022,07:58:45,0.296,1.0,0.229,0.005
10/04/2022,07:59:45,0.296,1.0,0.234,0.005
10/04/2022,08:00:45,0.304,1.0,0.239,0.005
10/04/2022,08:01:52,0.309,1.0,0.245,0.006
10/04/2022,08:02:45,0.313,1.0,0.249,0.004
10/04/2022,08:03:54,0.316,1.0,0.255,0.006
10/04/2022,08:04:46,0.317,1.0,0.26,0.005
10/04/2022,08:05:45,0.319,1.0,0.265,0.005
10/04/2022,08:06:46,0.322,1.0,0.271,0.006
10/04/2022,08:07:45,0.328,1.0,0.276,0.005
10/04/2022,08:08:45,0.336,1.0,0.282,0.006
10/04/2022,08:09:45,0.337,1.0,0.287,0.005
10/04/2022,08:10:45,0.346,1.0,0.293,0.006
10/04/2022,08:11:45,0.346,1.0,0.299,0.006
10/04/2022,08:12:45,0.356,1.0,0.305,0.006
10/04/2022,08:13:45,0.365,1.0,0.311,0.006
10/04/2022,08:14:45,0.367,1.0,0.316,0.005
10/04/2022,08:15:45,0.372,1.0,0.323,0.007
10/04/2022,08:16:45,0.379,1.0,0.329,0.006
10/04/2022,08:17:45,0.387,1.0,0.335,0.006
10/04/2022,08:18:45,0.395,1.0,0.342,0.007
10/04/2022,08:19:45,0.395,1.0,0.348,0.006
10/04/2022,08:20:45,0.394,1.0,0.355,0.007
10/04/2022,08:21:53,0.408,1.0,0.363,0.008
10/04/2022,08:22:44,0.409,1.0,0.368,0.005
10/04/2022,08:23:45,0.409,1.0,0.375,0.007
10/04/2022,08:24:53,0.419,1.0,0.383,0.008
10/04/2022,08:25:44,0.426,1.0,0.389,0.006
10/04/2022,08:26:45,0.440,1.0,0.397,0.008
10/04/2022,08:27:45,0.439,1.0,0.404,0.007
10/04/2022,08:28:45,0.455,1.0,0.411,0.007
10/04/2022,08:29:45,0.465,1.0,0.419,0.008
10/04/2022,08:30:45,0.472,1.0,0.427,0.008
10/04/2022,08:31:54,0.481,1.0,0.436,0.009
10/04/2022,08:32:45,0.488,1.0,0.443,0.007
10/04/2022,08:33:45,0.490,1.0,0.451,0.008
10/04/2022,08:34:45,0.495,1.0,0.459,0.008
10/04/2022,08:35:45,0.502,1.0,0.467,0.008
10/04/2022,08:36:45,0.503,1.0,0.476,0.009
10/04/2022,08:37:45,0.505,1.0,0.484,0.008
10/04/2022,08:38:45,0.499,1.0,0.493,0.009
10/04/2022,08:39:45,0.498,1.0,0.501,0.008
10/04/2022,08:40:45,0.498,1.0,0.509,0.008
10/04/2022,08:41:53,0.505,1.0,0.518,0.009
10/04/2022,08:42:44,0.527,1.0,0.526,0.008
10/04/2022,08:43:45,0.536,1.0,0.535,0.009
10/04/2022,08:44:45,0.540,1.0,0.544,0.009
10/04/2022,08:45:45,0.542,1.0,0.553,0.009
10/04/2022,08:46:45,0.549,1.0,0.562,0.009
10/04/2022,08:47:46,0.554,1.0,0.571,0.009
10/04/2022,08:48:45,0.569,1.0,0.58,0.009
10/04/2022,08:49:45,0.577,1.0,0.59,0.01
10/04/2022,08:50:45,0.583,1.0,0.6,0.01
10/04/2022,08:51:45,0.578,1.0,0.609,0.009
10/04/2022,08:52:54,0.600,1.0,0.621,0.012
10/04/2022,08:53:45,0.581,1.0,0.629,0.008
10/04/2022,08:54:45,0.580,1.0,0.638,0.009
10/04/2022,08:55:45,0.600,1.0,0.649,0.011
10/04/2022,08:56:45,0.606,1.0,0.658,0.009
10/04/2022,08:57:45,0.619,1.0,0.669,0.011
10/04/2022,08:58:45,0.611,1.0,0.679,0.01
10/04/2022,08:59:46,0.622,1.0,0.689,0.01
10/04/2022,09:00:45,0.630,1.0,0.699,0.01
10/04/2022,09:01:45,0.626,1.0,0.71,0.011
10/04/2022,09:02:53,0.646,1.0,0.722,0.012
10/04/2022,09:03:44,0.666,2.0,0.731,0.009
10/04/2022,09:04:45,0.672,2.0,0.743,0.012
10/04/2022,09:05:45,0.686,2.0,0.754,0.011
10/04/2022,09:06:45,0.698,2.0,0.765,0.011
10/04/2022,09:07:45,0.703,2.0,0.777,0.012
10/04/2022,09:08:45,0.712,2.0,0.789,0.012
10/04/2022,09:09:46,0.718,2.0,0.801,0.012
10/04/2022,09:10:45,0.718,2.0,0.813,0.012
10/04/2022,09:11:45,0.721,2.0,0.825,0.012
10/04/2022,09:12:45,0.706,2.0,0.837,0.012
10/04/2022,09:13:45,0.741,2.0,0.849,0.012
10/04/2022,09:14:45,0.749,2.0,0.862,0.013
10/04/2022,09:15:46,0.733,2.0,0.874,0.012
10/04/2022,09:16:45,0.733,2.0,0.886,0.012
10/04/2022,09:17:45,0.726,2.0,0.898,0.012
10/04/2022,09:18:46,0.733,2.0,0.911,0.013
10/04/2022,09:19:45,0.741,2.0,0.923,0.012
10/04/2022,09:20:45,0.743,2.0,0.935,0.012
10/04/2022,09:21:45,0.741,2.0,0.947,0.012
10/04/2022,09:22:45,0.754,2.0,0.96,0.013
10/04/2022,09:23:53,0.762,2.0,0.975,0.015
10/04/2022,09:24:46,0.804,2.0,0.986,0.011
10/04/2022,09:25:45,0.809,2.0,0.999,0.013
10/04/2022,09:26:45,0.795,2.0,1.013,0.014
10/04/2022,09:27:45,0.789,2.0,1.025,0.012
10/04/2022,09:28:45,0.817,2.0,1.039,0.014
10/04/2022,09:29:45,0.783,2.0,1.053,0.014
10/04/2022,09:30:45,0.803,2.0,1.066,0.013
10/04/2022,09:31:45,0.806,2.0,1.079,0.013
10/04/2022,09:32:45,0.820,2.0,1.093,0.014
10/04/2022,09:33:54,0.840,2.0,1.109,0.016
10/04/2022,09:35:46,0.872,2.0,1.135,0.026
10/04/2022,09:36:45,0.859,2.0,1.149,0.014
10/04/2022,09:37:46,0.872,2.0,1.164,0.015
10/04/2022,09:38:45,0.854,2.0,1.178,0.014
10/04/2022,09:39:45,0.849,2.0,1.192,0.014
10/04/2022,09:40:54,0.866,2.0,1.209,0.017
10/04/2022,09:41:45,0.907,2.0,1.222,0.013
10/04/2022,09:42:45,0.898,2.0,1.237,0.015
10/04/2022,09:43:45,0.877,2.0,1.252,0.015
10/04/2022,09:44:45,0.883,2.0,1.266,0.014
10/04/2022,09:45:46,0.892,2.0,1.281,0.015
10/04/2022,09:46:46,0.879,2.0,1.296,0.015
10/04/2022,09:47:45,0.894,2.0,1.31,0.014
10/04/2022,09:48:46,0.890,2.0,1.326,0.016
10/04/2022,09:49:45,0.893,2.0,1.341,0.015
10/04/2022,09:50:54,0.897,2.0,1.357,0.016
10/04/2022,09:51:45,0.901,2.0,1.37,0.013
10/04/2022,09:52:45,0.905,2.0,1.385,0.015
10/04/2022,09:53:54,0.909,2.0,1.403,0.018
10/04/2022,09:54:45,0.904,2.0,1.415,0.012
10/04/2022,09:55:45,0.916,2.0,1.431,0.016
10/04/2022,09:56:45,0.919,2.0,1.446,0.015
10/04/2022,09:57:45,0.916,2.0,1.461,0.015
10/04/2022,09:58:45,0.918,2.0,1.476,0.015
10/04/2022,09:59:45,0.914,2.0,1.492,0.016
10/04/2022,10:00:45,0.920,2.0,1.507,0.015
10/04/2022,10:01:54,0.889,2.0,1.525,0.018
10/04/2022,10:02:45,0.906,2.0,1.538,0.013
10/04/2022,10:03:46,0.886,2.0,1.553,0.015
10/04/2022,10:04:45,0.871,2.0,1.567,0.014
10/04/2022,10:05:45,0.883,2.0,1.581,0.014
10/04/2022,10:06:47,0.882,2.0,1.596,0.015
10/04/2022,10:07:45,0.908,2.0,1.611,0.015
10/04/2022,10:08:45,0.917,2.0,1.626,0.015
10/04/2022,10:09:45,0.934,2.0,1.642,0.016
10/04/2022,10:10:45,0.951,2.0,1.657,0.015
10/04/2022,10:11:45,0.941,2.0,1.673,0.016
10/04/2022,10:12:46,0.927,2.0,1.689,0.016
10/04/2022,10:13:47,0.960,2.0,1.705,0.016
10/04/2022,10:14:53,0.990,2.0,1.723,0.018
10/04/2022,10:15:44,0.981,2.0,1.737,0.014
10/04/2022,10:16:45,1.031,2.0,1.754,0.017
10/04/2022,10:17:45,1.039,2.0,1.771,0.017
10/04/2022,10:18:46,1.055,2.0,1.789,0.018
10/04/2022,10:19:45,1.058,2.0,1.806,0.017
10/04/2022,10:20:45,1.067,2.0,1.824,0.018
10/04/2022,10:21:54,1.041,2.0,1.844,0.02
10/04/2022,10:22:45,1.031,2.0,1.859,0.015
10/04/2022,10:23:46,1.022,2.0,1.876,0.017
10/04/2022,10:24:53,1.018,2.0,1.895,0.019
10/04/2022,10:25:45,1.035,2.0,1.909,0.014
10/04/2022,10:26:46,1.042,2.0,1.927,0.018
10/04/2022,10:27:46,1.069,2.0,1.945,0.018
10/04/2022,10:28:45,1.020,2.0,1.962,0.017
10/04/2022,10:29:45,0.986,2.0,1.978,0.016
10/04/2022,10:30:45,1.000,2.0,1.995,0.017
10/04/2022,10:31:45,0.990,2.0,2.012,0.017
10/04/2022,10:32:45,0.989,2.0,2.028,0.016
10/04/2022,10:33:45,1.041,2.0,2.045,0.017